Powrót do katalogu

COSMOS 1375 DEB

AktywnyLEO
NORAD 26498·DEBRIS·🇷🇺 Russia

Wystrzelony Jun 6, 1982 z Plesetsk Cosmodrome

Loading…

Następne Przeloty (najbliższe 24 godziny)

TLE

NieaktualneSource: Space-Track

Epoka: Aug 24, 2026, 04:24 UTC

1 26498U 82055BP  26236.18353810  .00001185  00000-0  78434-3 0  9991
2 26498  65.8130  77.6170 0016205 116.2106 244.0640 14.05262833671865

Śledź COSMOS 1375 DEB w czasie rzeczywistym z AllMySat

Download on the App Store